User: anonymous   Login
Location: Gisborne
(38.6530°S, 178.0040°E)
Time: 10:36:40
(UTC+13:00)
Language:

ATLAS 3B R/B - Orbit

View from above orbital plane
View from above orbital plane
View from above satellite
View from above satellite

Ground track
Ground track

The orbit data is extracted from the following two-line orbital elements,

1 28538U 05004B   19316.72690075 0.00000000  00000-0  00000-0 0    04
2 28538  63.8326 242.2283 0092059  77.1503 282.8497 13.43126265    00
Epoch (UTC): 12 November 2019 17:26:44
Eccentricity: 0.0092059
inclination: 63.8326°
perigee height: 1029 km
apogee height: 1166 km
right ascension of ascending node: 242.2283°
argument of perigee: 77.1503°
revolutions per day: 13.43126265
mean anomaly at epoch: 282.8497°
orbit number at epoch: 0

The dashed part of the orbit path shows where the satellite is in the earth's shadow,  

DLR